• Processing (Info)

  • MPEC 2015-X95 : 2015 XP129

    The following Minor Planet Electronic Circular may be linked-to from your own Web pages, but must not otherwise be redistributed electronically.

    A form allowing access to any MPEC is at the bottom of this page.


    Read MPEC 2015-X94 Read MPEC 2015-X96


    M.P.E.C. 2015-X95                                Issued 2015 Dec. 8, 14:26 UT
    
         The Minor Planet Electronic Circulars contain information on unusual
             minor planets and routine data on comets.  They are published
        on behalf of Division F of the International Astronomical Union by the
              Minor Planet Center, Smithsonian Astrophysical Observatory,
                              Cambridge, MA 02138, U.S.A.
    
                 Prepared using the Tamkin Foundation Computer Network
    
                                  MPC@CFA.HARVARD.EDU
                URL https://www.minorplanetcenter.net/    ISSN 1523-6714
    
                                      2015 XP129
    
    Observations:
         K15XC9P* C2015 12 04.36365 03 54 20.018+36 04 56.49         20.9 wLEX095F51
         K15XC9P  C2015 12 04.37557 03 54 18.668+36 04 42.03         20.9 wLEX095F51
         K15XC9P  C2015 12 05.25546 03 52 44.16 +35 46 41.2          20.6 RoEX095926
         K15XC9P  C2015 12 05.26494 03 52 43.09 +35 46 29.1          20.3 RoEX095926
         K15XC9P  C2015 12 05.27444 03 52 41.99 +35 46 16.1          20.2 RoEX095926
         K15XC9P _C2015 12 05.51068703 52 16.672+35 41 27.21         20.5 RtEX095568
         K15XC9P _C2015 12 05.51175903 52 16.559+35 41 25.87         20.6 RtEX095568
         K15XC9P _C2015 12 05.51286703 52 16.436+35 41 24.47         20.6 RtEX095568
         K15XC9P  C2015 12 06.35232 03 50 49.787+35 24 11.33         20.9 wLEX095F51
         K15XC9P  C2015 12 06.36504 03 50 48.422+35 23 55.92         20.9 wLEX095F51
         K15XC9P  C2015 12 06.37786 03 50 47.040+35 23 39.93         20.8 wLEX095F51
         K15XC9P  C2015 12 07.78940 03 48 25.61 +34 54 30.6          20.0 VSEX095033
         K15XC9P  C2015 12 07.85879 03 48 18.61 +34 53 05.2          20.0 VSEX095033
         K15XC9P  C2015 12 07.86352 03 48 18.14 +34 52 59.5          20.0 VSEX095033
         K15XC9P  C2015 12 07.98802 03 48 05.62 +34 50 25.4          20.3 VSEX095033
         K15XC9P  C2015 12 07.99038 03 48 05.37 +34 50 22.4          20.0 VSEX095033
         K15XC9P  C2015 12 07.99275 03 48 05.14 +34 50 19.4          20.3 VSEX095033
    
    Observer details:
    033 Karl Schwarzschild Observatory, Tautenburg.  Observers B. Stecklum,
        C. Hoegner.  Measurer B. Stecklum.  1.34-m f/3 Schmidt + CCD.
    568 Mauna Kea.  Observers R. J. Wainscoat, C. Wipper.  Measurers M. Micheli,
        R. J. Wainscoat.  3.6-m Canada-France-Hawaii Telescope + CCD.
    926 Tenagra II Observatory.  Observers M. Schwartz, P. R. Holvorcem.  Measurer
        M. Schwartz.  0.81-m f/7 Ritchey-Chretien + CCD.
    F51 Pan-STARRS 1, Haleakala.  Observers B. Gibson, T. Goggia, N. Primak,
        A. Schultz, M. Willman.  Measurers K. Chambers, S. Chastel, L. Denneau,
        H. Flewelling, M. Huber, E. Lilly, E. Magnier, R. Wainscoat, C. Waters,
        R. Weryk.  1.8-m Ritchey-Chretien + CCD.
    
    Orbital elements:
    2015 XP129                                          PHA, Earth MOID = 0.0435 AU
    Epoch 2016 Jan. 13.0 TT = JDT 2457400.5                 MPC
    M 123.16460              (2000.0)            P               Q
    n   0.49338253     Peri.   16.86875     +0.26477824     +0.90144917
    a   1.5861596      Node   269.53031     -0.91955660     +0.12909672
    e   0.3942855      Incl.   20.02779     -0.29035863     +0.41318691
    P   2.00           H   18.7           G   0.15           U   8
    Residuals in seconds of arc
    151204 F51  0.1+  0.0     151205 568  0.1+  0.1-    151207 033  0.1-  0.2-
    151204 F51  0.0   0.1+    151205 568  0.1+  0.1-    151207 033  0.0   0.0
    151205 926  0.0   0.4+    151206 F51  0.1+  0.0     151207 033  0.0   0.0
    151205 926  0.4-  0.0     151206 F51  0.1+  0.2+    151207 033  0.2-  0.1-
    151205 926  1.0-  1.4-    151206 F51  0.0   0.0     151207 033  0.1-  0.1-
    151205 568  0.1+  0.1-    151207 033  0.2+  0.2+
    
    Ephemeris:
    2015 XP129               a,e,i = 1.59, 0.39, 20                  q = 0.9608
    Date    TT    R. A. (2000) Decl.     Delta      r     Elong.  Phase     V
    2015 11 08    04 50 33.9 +43 09 01   0.9245  1.8164   143.0    19.2    20.8
    ...
    2015 11 23    04 17 30.0 +39 42 47   0.9215  1.8793   159.7    10.5    20.6
    ...
    2015 12 01    04 00 41.2 +37 12 44   0.9444  1.9107   163.5     8.4    20.6
    ...
    2015 12 07    03 49 43.8 +35 10 50   0.9735  1.9332   161.4     9.3    20.7
    2015 12 08    03 48 04.7 +34 50 14   0.9793  1.9368   160.7     9.7    20.7
    2015 12 09    03 46 28.9 +34 29 38   0.9855  1.9405   160.0    10.0    20.8
    ...
    2015 12 15    03 38 04.2 +32 27 20   1.0279  1.9618   154.3    12.6    21.0
    ...
    2015 12 23    03 30 04.6 +29 54 09   1.0987  1.9889   145.5    16.3    21.3
    ...
    2016 01 07    03 24 14.0 +25 59 13   1.2672  2.0354   129.1    22.0    21.8
    
    A. U. Tomatic                (C) Copyright 2015 MPC           M.P.E.C. 2015-X95
    

    Read MPEC 2015-X94 Read MPEC 2015-X96


    MPEC number:

    Enter an MPEC number in one of the following forms:

    • 1997-B01 (the full form)
    • J97B01 (the packed version of the full form)
    • B01 (the abbreviated form)